Lid_Strength_Index
11 10 10 10 10 10 12 12 14 12 12 11 9 9 9 8 7 7 6 5 5 5 6 7 7 8 8 9 9 9 9 10 11 11 11 11 10 10 9 9 9 8 7 6
12 10 10 11 10 10 10 10 11 11 12 8 8 8 8 8 7 7 6 5 5 5 6 8 8 9 10 10 10 10 10 12 12 12 11 10 10 10 10 10 9 9 9 7
15 11 11 14 11 10 9 10 10 13 11 8 9 8 9 9 7 7 6 6 5 7 8 9 10 10 11 10 10 10 12 12 12 11 10 10 10 9 10 10 10 10 10 9
15 13 19 11 7 8 10 10 9 9 8 9 8 8 8 8 7 6 6 6 7 9 9 10 11 11 10 10 11 12 13 12 11 11 11 10 11 11 11 11 11 11 11 10
15 16 13 10 9 10 11 12 8 9 8 8 8 8 8 7 6 6 7 7 8 9 10 12 11 11 10 11 13 13 13 12 11 11 11 11 11 11 11 11 11 11 11 11
14 17 19 12 9 7 8 15 8 8 9 9 8 11 10 7 6 7 7 8 9 10 11 11 11 10 11 13 13 13 12 12 12 12 12 12 11 11 11 11 11 11 11 11
14 16 13 9 8 6 15 14 8 8 9 9 10 9 8 6 7 7 8 9 9 11 12 11 10 10 12 14 13 13 12 12 12 12 12 12 12 11 11 11 11 11 11 11
14 16 17 7 8 11 9 8 8 8 8 8 9 8 7 6 7 8 9 9 10 11 12 11 10 11 14 14 12 12 12 13 13 12 12 12 12 11 11 11 12 12 12 12
12 13 8 7 8 7 7 8 7 8 8 7 8 7 6 7 8 8 9 10 11 11 11 11 10 11 14 13 13 13 13 13 12 12 12 12 12 12 12 11 12 12 12 12
11 10 8 7 6 6 6 6 6 6 6 6 7 6 6 7 8 9 10 11 11 11 11 11 10 11 12 12 12 13 13 13 13 13 12 12 11 12 13 12 12 12 13 13
10 9 8 7 6 5 5 5 6 5 5 6 5 6 6 7 7 9 10 11 11 11 11 11 10 11 11 12 12 13 13 13 13 13 12 12 13 14 14 14 14 14 14 13
12 8 8 8 7 6 6 6 6 5 5 5 5 5 6 7 7 9 11 11 11 11 10 10 9 10 12 12 12 13 14 14 13 13 13 13 13 14 13 13 13 13 14 14
9 7 7 6 6 5 6 5 4 4 5 5 5 5 6 7 8 9 11 11 11 10 10 10 10 11 12 12 13 13 14 15 14 14 14 14 14 14 15 14 13 13 14 14
6 6 7 6 7 5 4 4 3 4 4 4 5 5 5 7 8 10 11 11 10 10 10 10 10 11 11 11 12 12 13 13 14 14 14 14 14 14 14 15 15 14 12 12
6 6 6 6 5 4 4 4 5 5 5 4 4 5 6 7 9 10 10 10 10 9 10 10 11 12 11 11 11 11 12 13 13 13 14 13 14 14 14 13 12 12 11 11
7 6 6 5 5 5 5 5 6 6 5 5 5 5 6 7 9 10 10 10 10 10 11 11 11 11 11 11 11 11 11 12 13 13 14 14 13 13 13 13 12 12 12 12
6 7 6 6 6 6 6 6 5 5 5 5 4 5 5 7 8 10 10 10 10 9 11 10 11 10 10 11 11 11 11 12 14 13 13 13 13 13 12 12 12 12 12 13
5 5 5 5 6 6 5 5 5 5 5 4 4 4 5 6 7 9 9 9 10 10 11 9 9 10 10 11 11 11 11 13 13 12 12 12 12 12 12 12 12 12 13 12
5 5 5 5 5 5 6 5 6 5 5 5 5 5 5 5 7 8 9 9 10 10 10 8 9 10 11 10 10 11 11 11 12 12 12 12 12 11 11 11 12 12 13 13
5 5 5 5 5 5 5 5 5 5 5 6 6 6 5 4 6 8 9 10 9 9 9 8 10 10 10 10 11 11 11 11 12 11 11 11 11 12 12 13 12 12 13 13
5 5 5 5 5 4 5 5 5 6 6 6 5 5 5 4 5 6 8 9 8 8 8 8 10 9 10 12 11 10 11 12 12 12 11 12 11 11 12 12 12 12 12 13
5 5 4 4 5 5 5 5 5 5 5 5 4 5 5 4 5 6 7 8 8 11 9 8 9 10 11 14 10 10 11 11 11 11 11 11 11 12 12 12 12 12 13 13
5 4 4 4 5 5 5 5 5 5 5 5 6 5 5 5 5 7 8 8 8 10 8 8 10 11 14 11 10 10 11 11 11 11 11 11 12 12 12 13 13 13 13 14
5 5 4 4 4 5 6 5 5 4 5 5 5 5 4 5 5 5 6 9 10 10 8 8 9 12 13 11 11 10 10 12 12 11 12 13 12 12 12 13 13 13 13 14
5 5 4 4 5 5 5 5 4 5 5 5 5 5 5 6 6 6 7 8 11 9 8 11 11 12 10 10 11 11 11 11 12 11 11 11 12 12 12 12 13 13 14 15
6 6 6 5 5 5 5 4 5 5 5 6 6 7 7 7 5 6 7 8 8 9 8 9 9 9 9 9 11 11 11 11 11 12 11 11 12 12 12 13 14 14 15 15
6 6 6 5 3 4 4 5 5 6 5 5 6 5 5 5 6 7 8 7 8 8 8 8 8 8 8 9 10 11 11 11 11 11 11 11 12 12 13 14 15 15 16 16